Flag for Russia Weather past 2 weeks in Voronezh, Russia

Now
39 °F

Clear.


Feels Like: 37 °F
Forecast: 42 / 62 °F
Wind: 3 mph from North

Location: Voronez

Current Time: May 7, 2015 at 4:36:16 AM

Latest Report: May 7, 2015 at 4:00 AM


Visibility: 10 mi

Pressure: 29.95 "Hg

Humidity: 65%

Dew point: 28 °F

Location of VoronezhLocation

Historic Weather in Voronezh — Graph

°F

Voronezh temperature yesterday

Maximum temperature yesterday: 63 °F (at 4:00 PM)
Minimum temperature yesterday: 50 °F (at 12:00 AM)
Average temperature yesterday: 55 °F

Past Weeks' High & Low Weather Summary

 TemperatureHumidityPressure
High77 °F (Apr 28, 4:00 PM)94% (Apr 30, 5:00 AM)30.07 "Hg (Apr 30, 5:00 AM)
Low28 °F (Apr 22, 4:30 AM)16% (Apr 24, 11:00 AM)29.50 "Hg (Apr 24, 2:00 AM)
Average56 °F54%29.87 "Hg
* Reported Apr 22 3:00 AM — May 7 3:00 AM, Voronezh, Weather by CustomWeather, © 2015

Note: Actual official high and low records may vary slightly from our data, if they occured in-between our weather recording intervals... More about our weather records

Advertising

Voronezh weather history for previous 24 hours

 ConditionsComfort  
Time TempWeatherWind HumidityBarometerVisibility
3:00 AM
Thu, May 7
43 °FClear.6 mph57%29.98 "Hg10 mi
2:30 AM45 °FClear.6 mph53%29.98 "Hg10 mi
2:00 AM46 °FClear.6 mph50%29.98 "Hg10 mi
1:30 AM46 °FClear.6 mph50%29.98 "Hg10 mi
1:00 AM48 °FClear.6 mph46%29.98 "Hg10 mi
12:30 AM50 °FClear.6 mph40%29.95 "Hg10 mi
12:00 AM50 °FClear.6 mph43%29.98 "Hg10 mi
11:00 PM
Wed, May 6
50 °FClear.3 mph40%29.98 "Hg10 mi
10:30 PM50 °FClear.6 mph40%29.98 "Hg10 mi
10:00 PM52 °FClear.6 mph38%29.98 "Hg10 mi
9:30 PM52 °FClear.6 mph38%29.98 "Hg10 mi
9:00 PM54 °FClear.6 mph33%29.98 "Hg10 mi
8:30 PM55 °FSunny.6 mph31%29.98 "Hg10 mi
8:00 PM57 °FSunny.3 mph29%29.98 "Hg10 mi
7:30 PM59 °FSunny.6 mph29%29.95 "Hg10 mi
7:00 PM59 °FSunny.6 mph27%29.95 "Hg10 mi
6:30 PM61 °FSunny.10 mph25%29.95 "Hg10 mi
6:00 PM61 °FSunny.10 mph25%29.95 "Hg10 mi
5:30 PM63 °FSunny.10 mph25%29.95 "Hg10 mi
5:00 PM63 °FSunny.6 mph25%29.95 "Hg10 mi
4:30 PM63 °FSunny.10 mph25%29.95 "Hg10 mi
4:00 PM63 °FSunny.8 mph25%29.95 "Hg10 mi
3:30 PM61 °FSunny.13 mph25%29.95 "Hg10 mi
3:00 PM61 °FSunny.13 mph27%29.98 "Hg10 mi
2:30 PM59 °FSunny.15 mph29%29.98 "Hg10 mi
2:00 PM57 °FSunny.13 mph29%29.98 "Hg10 mi
1:30 PM57 °FSunny.10 mph29%29.98 "Hg10 mi
1:00 PM59 °FSunny.13 mph27%29.98 "Hg10 mi
12:30 PM59 °FSunny.17 mph31%29.98 "Hg10 mi
12:00 PM57 °FSunny.13 mph31%29.98 "Hg10 mi
11:30 AM57 °FSunny.13 mph36%29.98 "Hg10 mi
11:00 AM55 °FSunny.10 mph38%30.01 "Hg10 mi
10:30 AM55 °FPassing clouds.17 mph41%30.01 "HgN/A
10:00 AM54 °FSunny.13 mph47%30.01 "Hg10 mi
9:30 AM54 °FPassing clouds.13 mph51%30.01 "HgN/A
9:00 AM52 °FPassing clouds.13 mph54%30.01 "HgN/A
8:30 AM52 °FPassing clouds.10 mph54%30.01 "HgN/A
8:00 AM50 °FPassing clouds.10 mph58%30.01 "HgN/A
7:30 AM50 °FPassing clouds.8 mph58%30.01 "HgN/A
7:00 AM50 °FPassing clouds.10 mph58%30.01 "HgN/A
6:30 AM50 °FPassing clouds.8 mph58%30.01 "HgN/A
6:00 AM50 °FPassing clouds.6 mph58%29.98 "HgN/A
5:30 AM50 °FPassing clouds.10 mph58%29.98 "HgN/A
5:00 AM50 °FPassing clouds.6 mph58%29.98 "HgN/A
4:30 AM50 °FPassing clouds.8 mph62%29.98 "HgN/A
4:00 AM50 °FPassing clouds.6 mph58%29.98 "HgN/A
Weather by CustomWeather, © 2015

See weather overviewHow to use our weather pages